Flag for Germany Weather past 2 weeks in Schönebeck, Saxony-Anhalt, Germany

Now
43 °F

Passing clouds.


Feels Like: 37 °F
Forecast: 37 / 45 °F
Wind: 13 mph from West

Location: Magdeburg

Current Time: Mar 31, 2015 at 8:46:09 PM

Latest Report: Mar 31, 2015 at 8:00 PM


Visibility: 37 mi

Pressure: 29.44 "Hg

Humidity: 66%

Dew point: 33 °F

Location of SchönebeckLocation

Historic Weather in Schönebeck — Graph

°F

Schönebeck temperature yesterday

Maximum temperature yesterday: 49 °F (at 12:00 AM)
Minimum temperature yesterday: 38 °F (at 9:00 PM)
Average temperature yesterday: 44 °F

Past Weeks' High & Low Weather Summary

 TemperatureHumidityPressure
High61 °F (Mar 25, 5:00 PM)98% (Mar 31, 7:00 AM)30.40 "Hg (Mar 31, 7:00 AM)
Low27 °F (Mar 23, 5:00 AM)29% (Mar 19, 5:00 PM)29.09 "Hg (Mar 31, 9:00 AM)
Average44 °F70%29.96 "Hg
* Reported Mar 16 6:00 PM — Mar 31 7:00 PM, Schönebeck, Weather by CustomWeather, © 2015

Note: Actual official high and low records may vary slightly from our data, if they occured in-between our weather recording intervals... More about our weather records

Advertising

Schönebeck weather history for previous 24 hours

 ConditionsComfort  
Time TempWeatherWind HumidityBarometerVisibility
7:00 PM
Tue, Mar 31
46 °FPartly sunny.12 mph56%29.38 "Hg25 mi
6:00 PM46 °FSprinkles. Overcast.12 mph71%29.32 "Hg19 mi
5:00 PM47 °FSprinkles. Overcast.15 mph69%29.26 "Hg25 mi
4:00 PM49 °FOvercast.12 mph72%29.23 "Hg12 mi
3:00 PM52 °FPartly sunny.13 mph63%29.18 "Hg31 mi
2:00 PM52 °FPartly sunny.14 mph60%29.18 "Hg28 mi
1:00 PM51 °FOvercast.9 mph71%29.15 "Hg25 mi
12:00 PM50 °FScattered clouds.10 mph72%29.15 "Hg28 mi
10:00 AM45 °FOvercast.7 mph86%29.09 "Hg25 mi
9:00 AM38 °FLight rain. Overcast.6 mph97%29.09 "Hg2 mi
8:00 AM35 °FLight rain. Low clouds.7 mph96%29.12 "Hg3 mi
7:00 AM33 °FLight rain. Low clouds.7 mph98%29.21 "Hg2 mi
6:00 AM34 °FLight snow. Low clouds.6 mph96%29.32 "Hg2 mi
4:00 AM40 °FLight rain. Haze.7 mph70%29.53 "Hg14 mi
3:00 AM40 °FOvercast.5 mph70%29.60 "Hg25 mi
2:00 AM39 °FOvercast.3 mph72%29.66 "Hg31 mi
1:00 AM38 °FOvercast.3 mph73%29.70 "Hg28 mi
12:00 AM40 °FOvercast.5 mph68%29.72 "Hg25 mi
10:00 PM
Mon, Mar 30
40 °FPassing clouds.5 mph73%29.71 "Hg31 mi
9:00 PM38 °FPassing clouds.3 mph80%29.71 "Hg31 mi
8:00 PM42 °FPassing clouds.7 mph66%29.67 "Hg31 mi
Weather by CustomWeather, © 2015

See weather overviewHow to use our weather pages